Slayton, MN

7:40 AM CDT on May 22, 2018 (GMT -0500)
Slayton

Weather History for KDVP - March, 2014

Change the Weather History Date:

Thursday, March 6, 2014

  Actual Average (KOTG) Record (KOTG)
Temperature  
Mean Temperature 23 °F -  
Max Temperature 31 °F 26 °F 69 °F (2017)
Min Temperature 15 °F 14 °F -12 °F (1984)
Degree Days  
Heating Degree Days 42    
Moisture  
Dew Point 23 °F    
Average Humidity 92    
Maximum Humidity 94    
Minimum Humidity 88    
Precipitation  
Precipitation 0.00 in - - ()
Sea Level Pressure  
Sea Level Pressure 29.92 in    
Wind  
Wind Speed 19 mph (South)    
Max Wind Speed 31 mph    
Max Gust Speed 38 mph    
Visibility 3 miles    
Events      
Averages and records for this station are not official NWS values.
T = Trace of Precipitation, MM = Missing Value Source: NWS Daily Summary

Daily Weather History Graph

Daily Weather History Graph

Search for Another Location

Airport or City:

Astronomy

Mar. 06, 2014 Rise Set
Actual Time 6:51 AM CST 6:18 PM CST
Civil Twilight 6:22 AM CST 6:46 PM CST
Nautical Twilight 5:49 AM CST 7:20 PM CST
Astronomical Twilight 5:15 AM CST 7:53 PM CST
Moon 9:48 AM CST (3/6) No Moon Set
Length of Visible Light 12h 24m
Length of Day
11h 26m
Waxing Crescent, 32% of the Moon is Illuminated
Mar 6
Waxing Crescent
Mar 8
First Quarter
Mar 16
Full
Mar 23
Last Quarter
Mar 30
New

Hourly Weather History & Observations

Time (CST) Temp. Windchill Dew Point Humidity Pressure Visibility Wind Dir Wind Speed Gust Speed Precip Events Conditions
12:12 AM 18.1 °F 1.2 °F 16.7 °F 94% 30.20 in 3.0 mi South 21.9 mph - N/A   Overcast
12:32 AM 17.8 °F 1.9 °F 16.2 °F 93% 30.20 in 4.0 mi South 18.4 mph - N/A   Overcast
12:52 AM 16.7 °F 2.0 °F 14.9 °F 93% 30.19 in 5.0 mi South 15.0 mph 23.0 mph N/A   Mostly Cloudy
1:12 AM 15.8 °F 0.9 °F 14.0 °F 93% 30.18 in 5.0 mi South 15.0 mph 21.9 mph N/A   Mostly Cloudy
1:32 AM 15.4 °F -0.1 °F 13.5 °F 92% 30.17 in 5.0 mi South 16.1 mph - N/A   Mostly Cloudy
1:52 AM 15.4 °F -0.6 °F 13.6 °F 93% 30.15 in 5.0 mi South 17.3 mph - N/A   Mostly Cloudy
2:12 AM 16.2 °F 0.3 °F 14.4 °F 93% 30.15 in 5.0 mi South 17.3 mph - N/A   Scattered Clouds
2:32 AM 16.7 °F 1.0 °F 14.9 °F 93% 30.14 in 5.0 mi South 17.3 mph 25.3 mph N/A   Mostly Cloudy
2:52 AM 16.7 °F 2.6 °F 14.9 °F 93% 30.14 in 5.0 mi South 13.8 mph - N/A   Scattered Clouds
3:13 AM 17.2 °F 1.7 °F 15.4 °F 93% 30.13 in 4.0 mi South 17.3 mph 21.9 mph N/A   Scattered Clouds
3:32 AM 17.4 °F 1.9 °F 15.6 °F 93% 30.12 in 4.0 mi South 17.3 mph 21.9 mph N/A   Scattered Clouds
3:52 AM 17.6 °F 2.7 °F 16.0 °F 93% 30.11 in 4.0 mi South 16.1 mph 23.0 mph N/A   Mostly Cloudy
4:12 AM 18.0 °F 3.6 °F 16.3 °F 93% 30.11 in 4.0 mi South 15.0 mph 20.7 mph N/A   Overcast
4:32 AM 18.3 °F 2.6 °F 16.7 °F 93% 30.10 in 3.0 mi South 18.4 mph 21.9 mph N/A   Overcast
4:52 AM 18.5 °F 3.8 °F 17.1 °F 94% 30.10 in 3.0 mi South 16.1 mph 21.9 mph N/A   Overcast
5:12 AM 18.9 °F 4.8 °F 17.2 °F 93% 30.09 in 3.0 mi South 15.0 mph 19.6 mph N/A   Overcast
5:32 AM 19.2 °F 4.3 °F 17.6 °F 93% 30.08 in 3.0 mi South 17.3 mph - N/A   Overcast
5:52 AM 19.4 °F 5.0 °F 17.6 °F 93% 30.06 in 3.0 mi South 16.1 mph - N/A   Overcast
6:13 AM 19.4 °F 4.5 °F 17.8 °F 93% 30.06 in 3.0 mi South 17.3 mph 21.9 mph N/A   Overcast
6:33 AM 19.4 °F 3.2 °F 18.0 °F 94% 30.04 in 3.0 mi South 20.7 mph 26.5 mph N/A   Overcast
6:52 AM 19.8 °F 5.0 °F 18.3 °F 94% 30.04 in 3.0 mi South 17.3 mph 23.0 mph N/A   Overcast
7:12 AM 19.8 °F 3.7 °F 18.3 °F 94% 30.03 in 2.5 mi South 20.7 mph - N/A   Overcast
7:31 AM 19.8 °F 4.1 °F 18.3 °F 94% 30.02 in 1.8 mi South 19.6 mph 27.6 mph N/A   Overcast
7:52 AM 19.9 °F 3.5 °F 18.3 °F 93% 30.02 in 2.0 mi South 21.9 mph - N/A   Scattered Clouds
8:12 AM 20.1 °F 3.8 °F 18.3 °F 93% 30.02 in 2.0 mi SSE 21.9 mph - N/A   Clear
8:32 AM 20.3 °F 2.6 °F 18.5 °F 93% 30.01 in 1.8 mi South 26.5 mph - N/A   Mist
8:52 AM 20.8 °F 4.7 °F 18.9 °F 92% 30.00 in 1.8 mi South 21.9 mph 27.6 mph N/A   Mist
9:12 AM 21.2 °F 4.9 °F 19.2 °F 92% 29.99 in 1.8 mi South 23.0 mph 28.8 mph N/A   Mist
9:32 AM 22.1 °F 6.0 °F 20.1 °F 92% 29.98 in 1.8 mi South 23.0 mph 26.5 mph N/A   Mist
9:52 AM 23.0 °F 6.6 °F 20.5 °F 90% 29.97 in 1.8 mi South 25.3 mph 31.1 mph N/A   Mist
10:12 AM 23.9 °F 8.1 °F 21.2 °F 89% 29.95 in 1.2 mi South 24.2 mph 28.8 mph N/A   Mist
10:32 AM 24.6 °F 8.2 °F 21.9 °F 89% 29.94 in 1.2 mi SSE 27.6 mph 32.2 mph N/A   Mist
10:53 AM 25.2 °F 8.1 °F 22.3 °F 89% 29.93 in 1.2 mi South 31.1 mph 36.8 mph N/A   Mist
11:12 AM 25.7 °F 9.3 °F 23.0 °F 89% 29.92 in 1.8 mi South 28.8 mph 32.2 mph N/A   Mist
11:32 AM 26.2 °F 10.9 °F 23.0 °F 88% 29.93 in 2.0 mi South 25.3 mph 32.2 mph N/A   Clear
11:51 AM 26.6 °F 12.0 °F 23.5 °F 88% 29.92 in 2.0 mi South 23.0 mph 28.8 mph N/A   Clear
12:12 PM 27.3 °F 13.6 °F 24.4 °F 89% 29.91 in 2.0 mi South 20.7 mph 31.1 mph N/A   Clear
12:33 PM 27.7 °F 12.6 °F 24.8 °F 89% 29.89 in 1.5 mi South 26.5 mph 34.5 mph N/A   Mist
12:53 PM 28.2 °F 13.6 °F 25.0 °F 88% 29.87 in 1.5 mi South 25.3 mph 38.0 mph N/A   Mist
1:12 PM 28.2 °F 13.3 °F 25.7 °F 90% 29.85 in 1.2 mi South 26.5 mph 34.5 mph N/A   Mist
1:32 PM 28.9 °F 14.3 °F 26.1 °F 89% 29.84 in 1.5 mi South 26.5 mph 34.5 mph N/A   Scattered Clouds
1:53 PM 28.8 °F 14.9 °F 26.1 °F 90% 29.83 in 1.5 mi South 23.0 mph 33.4 mph N/A   Mostly Cloudy
2:13 PM 29.1 °F 15.4 °F 26.6 °F 90% 29.82 in 1.8 mi South 23.0 mph 32.2 mph N/A   Overcast
2:32 PM 29.3 °F 15.9 °F 27.0 °F 91% 29.82 in 1.8 mi South 21.9 mph 33.4 mph N/A   Overcast
2:52 PM 29.7 °F 16.1 °F 27.3 °F 91% 29.81 in 1.8 mi South 23.0 mph 29.9 mph N/A   Overcast
3:12 PM 29.8 °F 17.0 °F 27.7 °F 92% 29.81 in 2.0 mi South 20.7 mph 28.8 mph N/A   Overcast
3:32 PM 30.0 °F 17.2 °F 27.9 °F 92% 29.81 in 2.0 mi South 20.7 mph 28.8 mph N/A   Overcast
3:53 PM 30.2 °F 17.4 °F 28.0 °F 92% 29.81 in 2.0 mi South 20.7 mph 26.5 mph N/A   Overcast
4:11 PM 30.2 °F 17.1 °F 28.2 °F 92% 29.80 in 2.0 mi South 21.9 mph 26.5 mph N/A   Overcast
4:32 PM 30.2 °F 17.8 °F 28.4 °F 93% 29.79 in 2.0 mi South 19.6 mph 26.5 mph N/A   Mist
4:52 PM 30.2 °F 17.8 °F 28.4 °F 93% 29.79 in 2.5 mi South 19.6 mph - N/A   Mist
5:12 PM 30.2 °F 18.9 °F 28.4 °F 93% 29.78 in 2.5 mi South 16.1 mph - N/A   Clear
5:32 PM 30.2 °F 18.9 °F 28.4 °F 93% 29.78 in 3.0 mi South 16.1 mph - N/A   Clear
5:52 PM 30.2 °F 19.3 °F 28.4 °F 93% 29.78 in 3.0 mi South 15.0 mph - N/A   Clear
6:12 PM 30.2 °F 18.9 °F 28.4 °F 93% 29.77 in 3.0 mi South 16.1 mph - N/A   Clear
6:32 PM 30.6 °F 19.0 °F 28.4 °F 92% 29.77 in 5.0 mi South 17.3 mph - N/A   Clear
6:53 PM 30.6 °F 18.6 °F 28.4 °F 92% 29.77 in 5.0 mi South 18.4 mph - N/A   Clear
7:13 PM 30.2 °F 18.9 °F 28.0 °F 92% 29.77 in 5.0 mi South 16.1 mph - N/A   Clear
7:33 PM 30.2 °F 18.1 °F 28.0 °F 92% 29.75 in 5.0 mi South 18.4 mph - N/A   Clear
7:52 PM 30.4 °F 18.7 °F 28.0 °F 91% 29.74 in 5.0 mi South 17.3 mph - N/A   Clear
8:12 PM 30.2 °F 18.1 °F 27.9 °F 91% 29.73 in 5.0 mi South 18.4 mph - N/A   Clear
8:33 PM 30.6 °F 19.0 °F 28.0 °F 90% 29.73 in 4.0 mi South 17.3 mph - N/A   Clear
8:52 PM 30.9 °F 19.1 °F 28.4 °F 90% 29.74 in 4.0 mi South 18.4 mph 23.0 mph N/A   Clear
9:12 PM 30.9 °F 19.1 °F 28.4 °F 90% 29.73 in 5.0 mi South 18.4 mph - N/A   Clear
9:32 PM 31.1 °F 20.5 °F 28.4 °F 90% 29.74 in 5.0 mi South 15.0 mph - N/A   Clear
9:52 PM 31.5 °F 19.4 °F 28.8 °F 90% 29.73 in 4.0 mi South 19.6 mph - N/A   Clear
10:12 PM 31.1 °F 20.1 °F 28.6 °F 90% 29.73 in 4.0 mi South 16.1 mph - N/A   Clear
10:33 PM 31.5 °F 19.8 °F 28.9 °F 90% 29.72 in 4.0 mi South 18.4 mph 25.3 mph N/A   Clear
10:52 PM 31.1 °F 20.1 °F 28.8 °F 91% 29.71 in 4.0 mi South 16.1 mph 23.0 mph N/A   Clear
11:12 PM 30.9 °F 19.1 °F 28.8 °F 92% 29.70 in 4.0 mi South 18.4 mph 25.3 mph N/A   Clear
11:32 PM 31.5 °F 19.8 °F 29.3 °F 92% 29.69 in 4.0 mi South 18.4 mph 26.5 mph N/A   Clear
11:51 PM 31.5 °F 17.9 °F 29.3 °F 92% 29.68 in 4.0 mi SSW 25.3 mph 31.1 mph N/A   Clear